Location: Anumalkud?ru
(16.4847°N, 80.6636°E)
Time: 14:39:36
(UTC+00:00)

CZ-2C R/B - Pass Details

Date: 11 April 2026
Orbit: 662 x 774 km, 98.5° (Epoch: 11 May)

Event Time Altitude Azimuth Distance (km) Brightness Sun altitude
Rises 22:16:04 0° 20° (NNE) 3,148 6.2 -30.6°
Reaches altitude 10° 22:18:26 10° 26° (NNE) 2,207 5.4 -30.1°
Maximum altitude 22:23:06 49° 101° (E) 911 3.1 -29.0°
Enters shadow 22:23:43 46° 126° (SE) 945 3.1 -28.9°
